sim
Sign-in with your pilot id or email,
or register
Callsign
Passwort

Schedule Details

Flight Number: RYR2171 (1)
Departure: Bratislava M. R. Stefanik Airport (LZIB) at 09:20
Arrival: Thessaloniki International Airport (LGTS) at 11:10
Route: Ryanair Passenger Schedule. Enter filed route here before submitting Pirep.

Weather Information
Getting current METAR information for LZIB 211800Z 33011KT 9999 FEW028 SCT099 20/13 Q1026 NOSIG
Getting current METAR information for LGTS 211820Z 10005KT CAVOK 27/13 Q1016 NOSIG

Schedule Frequency

Route Map